When you browse on this site, cookies collect data to enhance your experience and personalize the content and advertising you see.
Visit our Privacy Policy to learn more. By continuing to use the site, you agree to this use of cookies and data.
  • în România
  • Lista ţărilor
  • Pe 7 zile
  • Temperatura apei
  • Hartă satelitară
  • Meteo pe hartă
  • Widget-uri
  • user-avatar
    Intrare

    Meteo pe oră la Cumaná

    Astăzi, 16 Ianuarie, Miercuri

    Timp Temperatura Precipitaţii Vânt Presiune Umiditate
    00:00 +25°C° 0 mm 5 m/s 754 mmHg 90%
    01:00 +25°C° 0 mm 5 m/s 754 mmHg 89%
    02:00 +23°C° 0 mm 5 m/s 753 mmHg 89%
    03:00 +25°C° 0 mm 5 m/s 753 mmHg 89%
    04:00 +25°C° 0 mm 5 m/s 753 mmHg 90%
    05:00 +25°C° 0 mm 4 m/s 753 mmHg 90%
    06:00 +25°C° 0 mm 4 m/s 753 mmHg 86%
    07:00 +26°C° 0 mm 4 m/s 754 mmHg 82%
    08:00 +27°C° 0 mm 4 m/s 754 mmHg 78%
    09:00 +29°C° 0 mm 4 m/s 754 mmHg 70%
    10:00 +32°C° 0 mm 4 m/s 754 mmHg 61%
    11:00 +34°C° 0 mm 4 m/s 755 mmHg 53%
    12:00 +33°C° 0 mm 5 m/s 754 mmHg 59%
    13:00 +32°C° 0 mm 5 m/s 753 mmHg 65%
    14:00 +30°C° 0 mm 5 m/s 753 mmHg 70%
    15:00 +30°C° 0 mm 5 m/s 752 mmHg 73%
    16:00 +29°C° 0 mm 6 m/s 752 mmHg 76%
    17:00 +29°C° 0 mm 6 m/s 752 mmHg 79%
    18:00 +28°C° 0 mm 6 m/s 752 mmHg 83%
    19:00 +27°C° 0 mm 6 m/s 753 mmHg 88%
    20:00 +26°C° 0 mm 6 m/s 753 mmHg 92%
    21:00 +26°C° 0 mm 6 m/s 753 mmHg 92%
    22:00 +26°C° 0 mm 6 m/s 753 mmHg 92%
    23:00 +26°C° 0 mm 6 m/s 754 mmHg 92%

    Mâine, 17 Ianuarie, Joi

    Timp Temperatura Precipitaţii Vânt Presiune Umiditate
    00:00 +26°C° 0 mm 6 m/s 754 mmHg 92%
    01:00 +26°C° 0 mm 6 m/s 753 mmHg 92%
    02:00 +26°C° 0 mm 6 m/s 753 mmHg 91%
    03:00 +26°C° 0 mm 5 m/s 753 mmHg 92%
    04:00 +26°C° 0 mm 5 m/s 753 mmHg 92%
    05:00 +26°C° 0 mm 5 m/s 753 mmHg 92%
    06:00 +26°C° 0 mm 5 m/s 754 mmHg 89%
    07:00 +27°C° 0 mm 5 m/s 754 mmHg 86%
    08:00 +27°C° 0 mm 5 m/s 754 mmHg 83%
    09:00 +30°C° 0 mm 5 m/s 755 mmHg 73%
    10:00 +33°C° 0 mm 5 m/s 755 mmHg 62%
    11:00 +35°C° 0 mm 4 m/s 755 mmHg 52%
    12:00 +34°C° 0 mm 5 m/s 754 mmHg 54%
    13:00 +34°C° 0 mm 5 m/s 753 mmHg 57%
    14:00 +33°C° 0 mm 5 m/s 752 mmHg 60%
    15:00 +32°C° 0.1 mm 6 m/s 752 mmHg 64%
    16:00 +32°C° 0.1 mm 6 m/s 751 mmHg 68%
    17:00 +30°C° 0.1 mm 6 m/s 751 mmHg 73%
    18:00 +29°C° 0 mm 6 m/s 752 mmHg 79%
    19:00 +28°C° 0 mm 6 m/s 752 mmHg 85%
    20:00 +26°C° 0 mm 6 m/s 753 mmHg 91%
    21:00 +26°C° 0 mm 6 m/s 753 mmHg 90%
    22:00 +26°C° 0 mm 5 m/s 753 mmHg 90%
    23:00 +26°C° 0 mm 5 m/s 753 mmHg 89%

    Poimâine, 18 Ianuarie, Vineri

    Timp Temperatura Precipitaţii Vânt Presiune Umiditate
    00:00 +26°C° 0 mm 5 m/s 753 mmHg 90%
    01:00 +25°C° 0 mm 5 m/s 753 mmHg 90%
    02:00 +25°C° 0 mm 5 m/s 752 mmHg 90%
    03:00 +25°C° 0 mm 5 m/s 752 mmHg 90%
    04:00 +25°C° 0 mm 5 m/s 752 mmHg 90%
    05:00 +25°C° 0 mm 5 m/s 752 mmHg 90%
    06:00 +26°C° 0 mm 4 m/s 752 mmHg 85%
    07:00 +27°C° 0 mm 4 m/s 753 mmHg 81%
    08:00 +28°C° 0 mm 4 m/s 753 mmHg 77%
    09:00 +30°C° 0 mm 4 m/s 753 mmHg 69%
    10:00 +33°C° 0 mm 4 m/s 754 mmHg 61%
    11:00 +34°C° 0 mm 4 m/s 754 mmHg 53%
    12:00 +34°C° 0 mm 4 m/s 753 mmHg 55%
    13:00 +33°C° 0 mm 4 m/s 752 mmHg 58%
    14:00 +33°C° 0 mm 4 m/s 751 mmHg 60%
    15:00 +32°C° 0 mm 5 m/s 751 mmHg 64%
    16:00 +30°C° 0 mm 5 m/s 750 mmHg 67%
    17:00 +30°C° 0 mm 6 m/s 750 mmHg 71%
    18:00 +29°C° 0 mm 6 m/s 751 mmHg 77%
    19:00 +27°C° 0 mm 6 m/s 751 mmHg 83%
    20:00 +26°C° 0 mm 6 m/s 752 mmHg 89%
    21:00 +26°C° 0 mm 6 m/s 752 mmHg 88%
    22:00 +26°C° 0 mm 6 m/s 752 mmHg 88%
    23:00 +26°C° 0 mm 6 m/s 753 mmHg 87%

    19 Ianuarie, Sâmbătă

    Timp Temperatura Precipitaţii Vânt Presiune Umiditate
    00:00 +26°C° 0 mm 5 m/s 752 mmHg 88%
    01:00 +26°C° 0 mm 5 m/s 752 mmHg 88%
    02:00 +25°C° 0 mm 5 m/s 752 mmHg 89%
    03:00 +25°C° 0 mm 5 m/s 752 mmHg 89%
    04:00 +25°C° 0 mm 5 m/s 752 mmHg 89%
    05:00 +25°C° 0 mm 5 m/s 752 mmHg 89%
    06:00 +26°C° 0 mm 5 m/s 752 mmHg 85%
    07:00 +27°C° 0 mm 5 m/s 753 mmHg 81%
    08:00 +28°C° 0 mm 5 m/s 753 mmHg 76%
    09:00 +30°C° 0 mm 4 m/s 753 mmHg 67%
    10:00 +33°C° 0 mm 4 m/s 754 mmHg 58%
    11:00 +35°C° 0 mm 4 m/s 754 mmHg 49%
    12:00 +35°C° 0 mm 5 m/s 753 mmHg 52%
    13:00 +34°C° 0 mm 5 m/s 752 mmHg 54%
    14:00 +33°C° 0 mm 6 m/s 751 mmHg 57%
    15:00 +32°C° 0 mm 6 m/s 751 mmHg 66%
    16:00 +29°C° 0 mm 6 m/s 751 mmHg 75%
    17:00 +28°C° 0 mm 6 m/s 750 mmHg 84%
    18:00 +27°C° 0 mm 6 m/s 751 mmHg 86%
    19:00 +27°C° 0 mm 6 m/s 751 mmHg 88%
    20:00 +26°C° 0 mm 6 m/s 752 mmHg 90%
    21:00 +26°C° 0 mm 6 m/s 752 mmHg 90%
    22:00 +26°C° 0 mm 6 m/s 752 mmHg 89%
    23:00 +24°C° 0 mm 6 m/s 753 mmHg 89%

    20 Ianuarie, Duminică

    Timp Temperatura Precipitaţii Vânt Presiune Umiditate
    00:00 +24°C° 0 mm 6 m/s 752 mmHg 89%
    01:00 +25°C° 0 mm 5 m/s 752 mmHg 90%
    02:00 +25°C° 0 mm 5 m/s 752 mmHg 90%
    03:00 +25°C° 0 mm 5 m/s 752 mmHg 89%
    04:00 +25°C° 0 mm 5 m/s 752 mmHg 89%
    05:00 +25°C° 0 mm 5 m/s 752 mmHg 89%
    06:00 +25°C° 0 mm 5 m/s 752 mmHg 85%
    07:00 +26°C° 0 mm 5 m/s 753 mmHg 81%
    08:00 +27°C° 0 mm 4 m/s 753 mmHg 76%
    09:00 +29°C° 0 mm 4 m/s 753 mmHg 65%
    10:00 +33°C° 0 mm 4 m/s 754 mmHg 54%
    11:00 +35°C° 0 mm 4 m/s 754 mmHg 44%
    12:00 +35°C° 0 mm 4 m/s 753 mmHg 44%
    13:00 +35°C° 0 mm 5 m/s 752 mmHg 45%
    14:00 +35°C° 0 mm 5 m/s 751 mmHg 46%
    15:00 +34°C° 0 mm 5 m/s 751 mmHg 54%
    16:00 +32°C° 0 mm 5 m/s 750 mmHg 61%
    17:00 +30°C° 0 mm 5 m/s 750 mmHg 69%
    18:00 +28°C° 0 mm 5 m/s 751 mmHg 75%
    19:00 +27°C° 0 mm 6 m/s 751 mmHg 81%
    20:00 +26°C° 0 mm 6 m/s 752 mmHg 88%
    21:00 +26°C° 0 mm 6 m/s 752 mmHg 88%
    22:00 +26°C° 0 mm 6 m/s 752 mmHg 89%
    23:00 +24°C° 0 mm 6 m/s 752 mmHg 89%

    21 Ianuarie, Luni

    Timp Temperatura Precipitaţii Vânt Presiune Umiditate
    00:00 +24°C° 0 mm 6 m/s 752 mmHg 90%
    01:00 +24°C° 0 mm 6 m/s 752 mmHg 91%
    02:00 +25°C° 0 mm 5 m/s 752 mmHg 92%
    03:00 +25°C° 0 mm 5 m/s 752 mmHg 91%
    04:00 +25°C° 0 mm 5 m/s 752 mmHg 91%
    05:00 +25°C° 0 mm 5 m/s 752 mmHg 90%
    06:00 +26°C° 0 mm 5 m/s 752 mmHg 87%
    07:00 +27°C° 0 mm 5 m/s 753 mmHg 83%
    08:00 +28°C° 0 mm 5 m/s 754 mmHg 80%
    09:00 +29°C° 0 mm 5 m/s 754 mmHg 72%
    10:00 +32°C° 0 mm 5 m/s 754 mmHg 65%
    11:00 +34°C° 0 mm 5 m/s 754 mmHg 58%
    12:00 +33°C° 0.1 mm 5 m/s 753 mmHg 61%
    13:00 +32°C° 0.1 mm 5 m/s 753 mmHg 65%
    14:00 +32°C° 0.1 mm 6 m/s 752 mmHg 68%
    15:00 +30°C° 0 mm 6 m/s 752 mmHg 71%
    16:00 +30°C° 0 mm 6 m/s 751 mmHg 73%
    17:00 +29°C° 0 mm 6 m/s 751 mmHg 76%
    18:00 +28°C° 0 mm 6 m/s 751 mmHg 82%
    19:00 +27°C° 0 mm 6 m/s 752 mmHg 88%
    20:00 +26°C° 0 mm 6 m/s 752 mmHg 95%
    21:00 +24°C° 0 mm 6 m/s 753 mmHg 95%
    22:00 +24°C° 0 mm 6 m/s 753 mmHg 95%
    23:00 +24°C° 0 mm 6 m/s 753 mmHg 95%
    Arată mai mult